Flag for Canada Weather past 2 weeks in Lethbridge, Alberta, Canada

Now
45 °F

Passing clouds.


Feels Like: 36 °F
Forecast: 39 / 55 °F
Wind: 23 mph from Southwest

Location: Lethbridge

Current Time: Oct 24, 2014 at 7:41:22 AM

Latest Report: Oct 24, 2014 at 7:00 AM


Visibility: 25 mi

Pressure: 29.89 "Hg

Humidity: 49%

Dew point: 27 °F

Location of LethbridgeLocation

Historic Weather in Lethbridge — Graph

°F

Lethbridge temperature yesterday

Maximum temperature yesterday: 63 °F (at 2:00 PM)
Minimum temperature yesterday: 48 °F (at 12:00 AM)
Average temperature yesterday: 54 °F

Past Weeks' High & Low Weather Summary

 TemperatureHumidityPressure
High77 °F (Oct 20, 1:00 PM)100% (Oct 16, 9:00 AM)30.21 "Hg (Oct 16, 9:00 AM)
Low30 °F (Oct 17, 4:00 AM)14% (Oct 20, 2:00 PM)29.57 "Hg (Oct 15, 4:00 PM)
Average52 °F57%29.84 "Hg
* Reported Oct 9 6:00 AM — Oct 24 6:00 AM, Lethbridge, Weather by CustomWeather, © 2014

Note: Actual official high and low records may vary slightly from our data, if they occured in-between our weather recording intervals... More about our weather records

Advertising

Lethbridge weather history for previous 24 hours

 ConditionsComfort  
Time TempWeatherWind HumidityBarometerVisibility
6:00 AM
Oct 24
45 °FPassing clouds.28 mph53%29.84 "Hg25 mi
5:00 AM46 °FClear.14 mph46%29.85 "Hg9 mi
4:00 AM45 °FClear.20 mph57%29.85 "Hg9 mi
3:00 AM43 °FClear.17 mph66%29.83 "Hg9 mi
2:00 AM46 °FClear.23 mph57%29.76 "Hg9 mi
1:00 AM48 °FClear.24 mph54%29.74 "Hg9 mi
12:00 AM52 °FClear.28 mph41%29.70 "Hg9 mi
11:00 PM
Oct 23
52 °FPassing clouds.28 mph50%29.67 "Hg9 mi
10:00 PM52 °FPassing clouds.29 mph58%29.65 "Hg15 mi
9:00 PM52 °FPassing clouds.24 mph62%29.66 "Hg15 mi
8:00 PM52 °FPassing clouds.20 mph62%29.68 "Hg15 mi
7:00 PM52 °FBroken clouds.22 mph67%29.68 "Hg30 mi
6:00 PM55 °FPartly sunny.17 mph51%29.68 "Hg40 mi
5:00 PM55 °FBroken clouds.7 mph51%29.67 "Hg40 mi
4:00 PM57 °FPartly sunny.5 mph48%29.67 "Hg40 mi
3:00 PM63 °FScattered clouds.21 mph39%29.67 "Hg40 mi
2:00 PM63 °FScattered clouds.26 mph39%29.66 "Hg40 mi
1:00 PM61 °FScattered clouds.26 mph42%29.68 "Hg40 mi
12:00 PM61 °FBroken clouds.24 mph42%29.68 "Hg25 mi
11:00 AM57 °FScattered clouds.26 mph48%29.66 "Hg30 mi
10:00 AM57 °FPassing clouds.21 mph48%29.67 "Hg25 mi
9:00 AM52 °FPassing clouds.16 mph58%29.67 "Hg30 mi
8:00 AM54 °FPassing clouds.17 mph54%29.66 "Hg25 mi
7:00 AM52 °FPassing clouds.13 mph58%29.66 "Hg25 mi
Weather by CustomWeather, © 2014

See weather overviewHow to use our weather pages